RH
26 34 39 30 27 18 17 24 25 24 18 19 24 32 29 24 25 26 29 30 30 33 32 34 35 40 42 48 41 45 43 47 53 53 45 49 52 54 56 62 54 59 65 62
27 30 16 11 10 13 19 21 20 18 15 18 28 32 28 24 23 24 26 28 30 34 35 34 36 41 40 41 45 46 45 44 48 57 52 55 49 55 56 60 58 54 57 61
31 21 13 11 12 15 15 19 17 16 15 17 24 32 27 23 21 20 22 23 28 31 35 35 39 41 47 44 44 42 47 45 49 52 48 53 54 54 56 60 59 55 52 56
22 14 14 14 16 17 17 14 14 14 19 25 19 28 26 22 21 20 21 25 28 28 30 34 39 45 49 47 40 41 44 47 44 49 52 57 59 58 62 63 59 60 53 53
30 22 20 18 17 16 22 13 14 17 18 24 20 22 20 21 23 21 25 26 28 27 30 34 38 38 46 45 46 46 41 44 46 49 48 57 56 59 60 60 60 63 57 56
26 19 20 24 14 15 15 18 17 19 23 41 25 20 26 24 21 20 23 25 27 30 30 30 33 42 46 52 48 46 45 45 45 49 50 52 57 59 61 63 69 67 64 64
22 23 18 21 20 17 19 32 76 54 62 52 21 23 21 19 18 17 20 24 27 27 29 32 35 42 47 49 48 48 44 42 44 49 53 59 64 65 69 72 76 74 75 73
37 33 24 20 29 30 25 35 90 63 76 47 16 20 31 19 19 17 16 22 25 32 28 30 32 36 44 48 50 46 44 42 50 57 58 62 66 71 73 74 74 71 72 75
40 34 21 20 20 25 36 37 39 48 61 51 30 31 29 19 20 19 22 25 29 35 30 31 34 38 40 44 46 44 42 50 54 55 63 67 67 67 69 70 72 74 70 53
40 41 22 22 23 29 43 41 49 84 44 64 44 24 37 23 22 21 23 32 35 33 31 32 36 37 37 37 50 51 49 53 56 62 64 66 66 64 66 66 66 68 64 62
32 50 35 27 31 37 44 52 53 65 78 81 77 37 24 24 21 22 22 26 38 34 32 34 36 34 38 46 50 52 50 48 50 57 63 64 62 60 59 60 62 63 64 60
44 60 52 32 30 26 35 41 54 81 53 81 70 40 28 29 30 26 25 25 39 34 36 35 38 42 42 47 50 50 49 42 41 43 51 56 55 56 56 58 59 63 59 62
39 63 69 41 41 37 41 49 88 89 69 66 73 48 24 23 25 28 31 38 38 36 43 42 44 47 47 45 44 41 41 41 39 40 45 52 54 54 54 57 58 56 61 60
44 45 55 60 60 65 55 65 96 74 82 69 63 44 32 28 28 29 36 40 42 42 42 48 50 50 45 42 40 40 42 41 40 40 43 50 54 52 51 54 56 60 61 61
42 56 64 60 45 44 41 42 73 76 49 58 30 25 22 28 30 34 37 37 38 40 43 46 50 49 42 42 41 39 41 42 40 41 42 46 48 45 50 53 58 59 60 58
43 62 56 64 40 34 32 27 44 54 42 41 37 37 25 22 32 36 34 34 38 39 41 44 39 34 35 33 37 39 40 42 41 40 40 36 42 42 50 54 55 55 59 59
55 71 71 64 39 39 53 43 32 32 46 42 52 35 29 30 33 38 39 39 38 41 43 38 35 36 35 36 36 38 37 38 40 40 34 34 42 44 49 49 51 56 60 59
58 65 84 90 57 55 36 24 26 34 34 38 34 30 31 33 42 44 43 41 40 41 38 35 37 38 38 37 36 38 37 38 39 36 33 37 42 44 46 49 52 58 58 58
48 75 90 80 82 44 29 29 25 26 32 34 33 28 32 37 39 42 37 42 46 46 47 46 47 43 39 36 36 36 37 38 37 36 36 39 45 46 48 51 56 57 58 56
38 64 70 84 87 80 56 25 22 24 40 38 35 38 38 38 61 53 43 40 41 40 42 46 41 38 38 40 37 39 38 38 39 36 40 41 45 48 51 55 57 58 53 49
67 80 84 96 86 62 33 24 26 38 54 40 46 47 51 62 58 47 40 39 37 38 38 37 38 38 34 33 36 32 28 31 34 37 40 43 45 47 50 52 57 54 56 52
67 82 89 89 90 73 28 28 35 51 46 44 57 59 59 54 49 44 40 39 38 41 38 37 34 34 34 27 28 28 31 31 36 39 42 43 46 43 35 54 56 56 55 62
68 70 85 74 76 52 52 49 44 43 43 54 59 54 51 49 46 43 44 43 38 34 33 30 31 27 28 30 32 34 36 34 38 43 45 47 47 46 49 57 60 58 62 68
47 46 82 60 57 49 48 42 42 45 50 53 52 51 47 48 46 45 42 41 38 33 29 24 25 29 34 33 30 34 35 37 37 42 44 43 44 62 60 56 62 69 70 75
56 50 57 60 55 50 49 42 50 49 49 49 49 46 46 46 45 41 38 35 29 25 24 28 33 36 35 34 34 33 36 42 42 43 43 48 60 68 67 64 72 65 64 70
53 58 67 74 54 56 56 51 49 49 50 47 45 44 39 38 41 39 32 27 26 31 34 36 36 36 35 32 33 39 44 45 50 50 52 67 69 78 71 68 63 63 73 68
Wind_Speed
3 7 3 11 10 7 5 12 9 6 6 4 3 11 11 10 8 10 9 9 9 9 8 8 7 8 8 4 6 5 6 5 5 3 2 2 1 2 3 2 4 5 5 6
5 3 4 5 6 4 5 11 7 3 7 6 9 9 11 10 7 10 10 10 10 8 9 8 8 7 6 5 5 7 6 5 4 2 1 1 2 1 3 2 2 3 4 3
7 4 7 6 5 8 6 8 6 7 5 4 2 1 9 8 7 8 9 12 11 15 11 11 9 8 8 6 4 6 6 5 5 6 5 4 3 3 4 3 2 2 3 3
5 5 6 5 4 6 5 4 4 10 6 4 9 6 9 14 15 9 11 10 14 14 11 11 9 8 9 6 5 5 7 6 5 6 5 5 2 2 2 2 2 2 4 3
2 6 6 7 5 6 1 6 4 4 8 3 4 2 8 16 13 15 11 11 12 14 15 11 12 11 9 9 7 6 6 7 6 6 5 4 2 2 2 2 6 4 4 1
3 1 4 2 3 6 4 3 4 5 3 3 9 9 3 15 21 16 10 11 12 11 12 13 11 10 9 8 7 4 3 6 7 6 6 5 4 3 3 4 4 4 3 3
3 2 3 1 3 4 3 5 3 4 4 7 7 6 9 16 15 21 21 19 16 15 12 11 13 12 9 9 8 6 6 6 6 3 3 5 5 7 7 5 4 6 4 4
5 4 0 3 3 2 4 6 6 4 1 4 1 4 6 7 9 12 18 18 15 14 14 13 12 12 11 10 9 8 6 1 7 7 8 7 8 5 5 5 5 6 6 5
6 1 1 6 4 3 2 0 2 3 4 1 5 3 8 5 5 5 10 16 16 14 15 13 10 10 13 9 10 8 7 9 8 7 6 7 8 9 7 8 6 5 6 8
3 5 1 2 2 2 2 2 4 5 0 4 7 4 5 7 5 4 4 9 12 14 13 10 10 10 8 7 8 8 9 9 7 8 7 7 7 7 6 6 7 7 7 9
4 7 2 3 4 7 2 0 2 4 6 5 2 6 5 8 8 9 6 8 9 14 13 10 11 9 9 10 10 8 9 10 9 7 7 7 6 6 6 5 6 6 6 7
2 6 4 5 2 4 1 5 6 7 5 4 4 8 3 6 5 8 7 7 9 12 10 9 9 12 12 11 10 10 9 10 7 7 7 5 5 5 5 5 5 6 6 6
2 0 4 4 5 4 3 2 5 4 3 7 5 7 1 6 5 6 8 8 11 12 12 13 12 11 11 11 10 9 8 8 7 7 6 6 5 4 5 5 5 6 6 6
3 2 7 8 5 5 1 3 1 5 3 3 8 3 5 4 6 5 6 8 10 13 14 13 12 11 10 10 10 8 7 7 6 5 4 4 5 4 4 5 6 6 6 6
4 3 1 4 3 4 6 5 8 8 11 7 7 7 5 3 8 8 8 10 15 14 14 13 11 9 9 8 7 7 6 6 3 3 3 4 3 4 5 6 6 5 6 5
2 3 1 3 6 10 7 8 10 12 11 11 18 20 13 9 6 7 10 11 13 14 13 13 12 11 9 8 7 7 6 5 4 5 5 4 3 5 5 5 5 6 6 6
6 5 3 4 3 4 6 10 14 10 7 7 8 10 4 3 7 7 8 11 13 13 13 12 12 10 8 7 6 6 5 4 5 5 5 5 5 4 4 5 6 6 5 5
6 6 4 3 3 2 10 2 3 10 10 9 7 6 6 7 6 8 7 11 13 13 13 11 9 8 7 6 6 3 3 4 4 5 4 4 4 4 5 6 6 6 4 4
4 5 2 4 3 7 9 2 3 4 2 4 7 8 10 12 12 7 10 12 13 14 12 10 8 7 6 4 2 2 4 4 4 4 3 3 4 4 5 6 7 6 3 4
1 5 6 2 3 5 6 2 3 3 5 8 7 6 14 6 6 3 12 16 15 13 10 9 6 5 3 1 2 3 4 5 5 4 4 3 4 5 6 7 6 3 4 4
1 2 6 2 3 8 2 4 2 4 8 6 4 6 7 6 4 12 15 13 12 10 9 6 5 3 1 2 4 5 5 6 5 4 5 5 5 6 6 6 3 4 4 5
8 7 4 3 3 8 4 3 3 5 2 5 7 11 15 13 13 13 12 10 10 10 6 4 3 2 5 6 5 5 6 6 6 5 5 6 6 5 6 4 5 5 6 5
4 8 7 9 8 4 4 6 3 3 3 6 11 9 14 13 12 11 8 8 9 8 6 5 6 6 5 6 6 6 6 6 7 7 7 7 7 6 4 5 6 5 4 5
4 5 4 5 3 7 7 5 2 6 7 11 12 11 11 12 9 9 7 7 6 6 8 6 6 7 6 6 6 5 6 8 10 9 8 8 9 6 5 5 4 4 6 5
6 6 6 2 4 7 5 5 8 11 11 12 12 12 10 9 8 9 9 9 10 8 7 7 7 5 6 6 6 6 8 9 9 9 9 8 5 6 6 6 5 7 8 8
3 7 6 7 9 6 6 8 11 11 9 10 12 14 14 14 12 11 10 8 7 6 6 6 6 6 6 7 8 8 9 10 9 9 6 5 5 4 5 6 9 12 9 14
Wind_Direction
171 101 183 200 231 264 186 140 149 154 183 191 173 149 177 190 163 176 189 171 171 153 159 128 124 133 130 152 124 122 81 33 43 26 42 24 105 66 72 98 78 65 53 37
35 102 345 313 301 318 142 122 120 131 178 159 149 170 182 183 190 182 184 182 166 153 140 146 146 142 144 147 151 117 105 61 33 36 8 268 131 111 130 122 111 97 91 81
111 330 316 294 331 353 55 137 167 151 180 274 95 156 184 210 188 194 183 184 161 160 163 164 158 161 152 157 120 121 130 102 57 36 28 19 30 17 23 347 11 257 159 139
74 323 342 297 42 360 71 68 120 120 110 217 148 252 205 184 198 198 197 180 168 172 166 161 159 162 153 157 132 132 128 125 93 69 54 60 71 36 267 285 312 289 241 175
278 15 15 18 356 34 1 17 2 156 187 344 245 67 247 164 201 207 197 184 179 176 162 163 162 164 156 151 154 156 163 150 156 154 149 144 161 225 251 316 325 321 311 211
60 11 60 333 19 44 14 355 348 14 46 342 229 168 261 177 199 191 189 184 172 167 159 163 164 135 144 146 144 150 226 195 183 177 191 184 202 251 313 323 337 335 328 325
120 32 329 59 80 25 16 50 347 356 8 225 312 125 239 203 182 192 189 185 174 164 156 151 142 145 149 149 155 177 217 231 201 186 47 57 47 36 31 19 6 2 346 350
141 300 301 12 93 108 247 153 152 217 261 294 72 246 250 136 132 187 189 177 168 157 159 153 156 154 156 161 174 184 199 166 75 79 58 51 44 42 32 19 17 21 19 352
161 131 118 59 15 49 306 296 222 74 6 33 253 336 357 84 83 77 147 158 166 157 158 153 154 145 155 163 179 172 116 86 74 66 66 57 52 40 24 16 20 14 9 6
54 106 233 76 39 92 104 258 56 8 137 262 289 257 245 174 169 151 124 158 152 148 151 147 143 140 160 150 108 97 88 89 82 67 56 61 50 41 33 23 14 11 1 6
94 107 237 61 206 182 116 98 93 126 149 182 262 274 306 191 172 174 190 138 149 152 152 144 142 141 113 108 104 100 89 79 64 65 62 63 49 40 32 18 8 6 6 358
89 124 167 202 160 59 79 198 147 127 256 232 160 271 33 73 94 145 148 128 137 139 139 133 122 105 96 103 93 84 77 72 62 57 52 51 46 40 21 4 2 14 358 355
143 226 77 342 352 13 214 186 102 122 92 226 137 258 85 58 63 75 124 108 117 118 91 93 94 92 95 91 87 80 72 69 57 43 33 19 10 18 6 13 10 360 358 348
117 152 161 190 197 148 228 220 116 131 153 203 228 293 292 241 177 111 103 114 102 106 105 100 92 90 85 85 88 84 73 68 57 36 14 354 341 23 17 16 2 2 354 354
95 162 178 213 225 191 189 202 175 196 225 187 261 228 217 6 186 160 132 116 112 112 106 106 104 98 91 81 74 73 63 52 29 0 342 327 339 30 29 11 360 349 337 334
125 256 301 297 241 238 231 226 206 216 245 250 261 271 276 293 156 136 138 130 119 121 120 115 110 101 93 88 76 67 48 19 17 345 326 334 23 35 16 3 341 325 321 323
149 128 83 258 28 32 336 227 224 216 195 196 209 241 294 244 148 144 138 117 117 112 109 103 96 94 88 86 83 61 26 351 346 330 325 341 35 16 355 340 319 305 304 307
150 127 118 236 25 309 238 148 201 224 247 219 222 223 147 115 90 90 94 111 111 108 105 101 100 94 87 86 72 54 348 319 319 320 327 25 5 348 336 317 298 292 286 316
158 122 122 145 219 275 307 147 137 157 274 349 299 189 125 108 79 36 88 95 101 101 99 98 93 86 78 80 119 270 280 283 291 304 2 353 351 330 312 299 289 293 322 291
6 120 126 145 172 232 244 106 15 56 287 343 336 132 135 117 105 173 98 97 95 97 99 98 103 104 112 278 278 302 309 323 324 359 323 311 318 306 293 283 290 259 285 288
141 51 175 156 233 287 203 129 334 103 241 339 69 96 85 78 114 116 102 97 100 102 102 109 115 91 4 353 16 5 345 338 316 315 312 307 290 283 278 279 267 287 292 296
162 148 189 127 92 273 160 113 191 195 54 71 73 105 99 100 95 97 101 108 113 108 113 131 101 47 30 35 22 357 348 318 316 312 307 295 286 285 299 320 318 312 297 301
172 175 179 169 211 219 49 119 74 119 117 106 110 111 111 106 102 102 98 89 83 80 67 57 43 40 21 22 27 11 322 339 339 336 331 332 327 315 347 332 305 297 308 298
230 161 134 79 232 144 117 99 115 102 87 117 114 112 108 112 111 110 106 100 88 68 58 47 36 28 18 13 4 351 344 8 12 355 339 329 323 329 325 318 320 311 300 293
198 119 160 210 81 90 130 145 109 92 96 94 96 109 110 112 109 96 86 70 62 50 37 40 38 23 359 359 358 348 25 7 349 337 326 321 345 328 322 314 306 305 292 281
186 168 148 214 193 155 178 134 117 104 96 96 99 84 74 80 81 79 73 63 55 43 39 31 13 11 5 358 356 15 358 346 334 318 329 340 329 321 323 324 316 303 292 304